Location: Catacaguana
(10.4120°N, 66.7591°W)
Time: 07:37:36
(UTC+00:00)

H-2A R/B - Pass Details

Date: 27 May 2022
Orbit: 526 x 648 km, 98.3° (Epoch: 28 June)

Event Time Altitude Azimuth Distance (km) Brightness Sun altitude
Exits shadow 00:35:04 73° 0° (N) 670 2.7 -25.5°
Drops below altitude 10° 00:39:02 10° 349° (N) 2,003 5.6 -26.3°
Sets 00:41:11 0° 349° (N) 2,895 6.6 -26.8°
